contact:dominique.lefevre@mio.osupytheas.fr, maurice.libes@osupytheas.fr, didier.mallarino@osupytheas.fr
Project:EMSO http://www.emso-fr.org/EMSO-France
Depth: 2436.0 m
Title:EMSO Ligure Ouest : Data MII capteur MICROCAT
DateTime_Computer,Latitude,Longitude,Temperature,Conductivity,Pressure,DateTime_Instrument
DateTime_Computer,Latitude,Longitude,degC,S m-1,dbar,DateTime_Instrument
2017-11-28T00:00:55Z,42.805,6.029,13.2973,4.59982,2472.032,2017-11-28T02:02:24Z
2017-11-28T00:03:58Z,42.805,6.029,13.2978,4.59986,2472.01,2017-11-28T02:05:27Z
2017-11-28T00:07:01Z,42.805,6.029,13.2978,4.59995,2472.047,2017-11-28T02:08:30Z
2017-11-28T00:10:04Z,42.805,6.029,13.2968,4.59993,2472.069,2017-11-28T02:11:32Z
2017-11-28T00:13:07Z,42.805,6.029,13.2970,4.59992,2472.069,2017-11-28T02:14:35Z
2017-11-28T00:16:10Z,42.805,6.029,13.2982,4.59992,2472.024,2017-11-28T02:17:38Z
2017-11-28T00:19:13Z,42.805,6.029,13.2985,4.60006,2472.047,2017-11-28T02:20:41Z
2017-11-28T00:22:16Z,42.805,6.029,13.2984,4.59992,2472.024,2017-11-28T02:23:44Z
2017-11-28T00:25:19Z,42.805,6.029,13.2979,4.59991,2472.047,2017-11-28T02:26:47Z
2017-11-28T00:28:21Z,42.805,6.029,13.2973,4.59990,2472.032,2017-11-28T02:29:50Z
2017-11-28T00:31:24Z,42.805,6.029,13.2979,4.59981,2472.069,2017-11-28T02:32:53Z
2017-11-28T00:34:27Z,42.805,6.029,13.2967,4.60001,2472.069,2017-11-28T02:35:56Z
2017-11-28T00:37:30Z,42.805,6.029,13.2968,4.59995,2472.032,2017-11-28T02:38:59Z
2017-11-28T00:40:33Z,42.805,6.029,13.2989,4.59972,2472.032,2017-11-28T02:42:02Z
2017-11-28T00:43:36Z,42.805,6.029,13.2973,4.59989,2472.032,2017-11-28T02:45:05Z
2017-11-28T00:46:39Z,42.805,6.029,13.2978,4.59995,2472.047,2017-11-28T02:48:07Z
2017-11-28T00:49:42Z,42.805,6.029,13.2973,4.59999,2472.069,2017-11-28T02:51:10Z
2017-11-28T00:52:45Z,42.805,6.029,13.2978,4.59983,2472.047,2017-11-28T02:54:13Z
2017-11-28T00:55:48Z,42.805,6.029,13.2976,4.59993,2472.01,2017-11-28T02:57:16Z
2017-11-28T00:58:51Z,42.805,6.029,13.2970,4.59986,2472.047,2017-11-28T03:00:19Z
2017-11-28T01:01:54Z,42.805,6.029,13.2967,4.60003,2472.047,2017-11-28T03:03:22Z
2017-11-28T01:04:56Z,42.805,6.029,13.2985,4.60012,2472.032,2017-11-28T03:06:25Z
2017-11-28T01:07:59Z,42.805,6.029,13.3002,4.59981,2472.069,2017-11-28T03:09:28Z
2017-11-28T01:11:02Z,42.805,6.029,13.2988,4.60003,2472.077,2017-11-28T03:12:31Z
2017-11-28T01:14:05Z,42.805,6.029,13.3004,4.59992,2472.047,2017-11-28T03:15:34Z
2017-11-28T01:17:08Z,42.805,6.029,13.2988,4.60001,2472.092,2017-11-28T03:18:36Z
2017-11-28T01:20:11Z,42.805,6.029,13.2982,4.60005,2472.069,2017-11-28T03:21:39Z
2017-11-28T01:23:14Z,42.805,6.029,13.2992,4.60012,2472.024,2017-11-28T03:24:42Z
2017-11-28T01:26:17Z,42.805,6.029,13.3011,4.60005,2472.069,2017-11-28T03:27:45Z
2017-11-28T01:29:20Z,42.805,6.029,13.2998,4.59986,2472.069,2017-11-28T03:30:48Z
2017-11-28T01:32:22Z,42.805,6.029,13.2977,4.59999,2472.047,2017-11-28T03:33:51Z
2017-11-28T01:35:25Z,42.805,6.029,13.3009,4.59992,2472.024,2017-11-28T03:36:54Z
2017-11-28T01:38:28Z,42.805,6.029,13.2988,4.59994,2472.069,2017-11-28T03:39:57Z
2017-11-28T01:41:31Z,42.805,6.029,13.2977,4.59994,2472.055,2017-11-28T03:43:00Z
2017-11-28T01:44:34Z,42.805,6.029,13.2991,4.60010,2472.055,2017-11-28T03:46:02Z
2017-11-28T01:47:37Z,42.805,6.029,13.2993,4.59997,2472.069,2017-11-28T03:49:05Z
2017-11-28T01:50:40Z,42.805,6.029,13.2972,4.59999,2472.092,2017-11-28T03:52:08Z
2017-11-28T01:53:43Z,42.805,6.029,13.2973,4.60016,2472.069,2017-11-28T03:55:11Z
2017-11-28T01:56:46Z,42.805,6.029,13.3010,4.60003,2472.069,2017-11-28T03:58:14Z
2017-11-28T01:59:48Z,42.805,6.029,13.3023,4.60029,2472.092,2017-11-28T04:01:17Z
2017-11-28T02:02:51Z,42.805,6.029,13.2996,4.59999,2472.069,2017-11-28T04:04:20Z
2017-11-28T02:05:54Z,42.805,6.029,13.2988,4.60001,2472.069,2017-11-28T04:07:23Z
2017-11-28T02:08:57Z,42.805,6.029,13.2981,4.60019,2472.069,2017-11-28T04:10:26Z
2017-11-28T02:12:00Z,42.805,6.029,13.3005,4.60009,2472.069,2017-11-28T04:13:28Z
2017-11-28T02:15:03Z,42.805,6.029,13.3009,4.59978,2472.092,2017-11-28T04:16:31Z
2017-11-28T02:18:06Z,42.805,6.029,13.3003,4.59995,2472.069,2017-11-28T04:19:34Z
2017-11-28T02:21:09Z,42.805,6.029,13.2973,4.60009,2472.047,2017-11-28T04:22:37Z
2017-11-28T02:24:12Z,42.805,6.029,13.3001,4.60001,2472.092,2017-11-28T04:25:40Z
2017-11-28T02:27:14Z,42.805,6.029,13.2979,4.59996,2472.092,2017-11-28T04:28:43Z
2017-11-28T02:30:17Z,42.805,6.029,13.2985,4.60019,2472.069,2017-11-28T04:31:46Z
2017-11-28T02:33:20Z,42.805,6.029,13.2973,4.59987,2472.047,2017-11-28T04:34:49Z
2017-11-28T02:36:23Z,42.805,6.029,13.2998,4.59984,2472.055,2017-11-28T04:37:52Z
2017-11-28T02:39:26Z,42.805,6.029,13.3018,4.59989,2472.069,2017-11-28T04:40:55Z
2017-11-28T02:42:29Z,42.805,6.029,13.2995,4.59983,2472.092,2017-11-28T04:43:57Z
2017-11-28T02:45:32Z,42.805,6.029,13.2986,4.60003,2472.107,2017-11-28T04:47:00Z
2017-11-28T02:48:35Z,42.805,6.029,13.2990,4.60010,2472.069,2017-11-28T04:50:03Z
2017-11-28T02:51:38Z,42.805,6.029,13.2989,4.60016,2472.047,2017-11-28T04:53:06Z
2017-11-28T02:54:41Z,42.805,6.029,13.2991,4.59994,2472.069,2017-11-28T04:56:09Z
2017-11-28T02:57:43Z,42.805,6.029,13.3005,4.59995,2472.077,2017-11-28T04:59:12Z
2017-11-28T03:00:46Z,42.805,6.029,13.3027,4.60013,2472.069,2017-11-28T05:02:15Z
2017-11-28T03:03:49Z,42.805,6.029,13.3027,4.60035,2472.055,2017-11-28T05:05:18Z
2017-11-28T03:06:52Z,42.805,6.029,13.3005,4.60024,2472.069,2017-11-28T05:08:21Z
2017-11-28T03:09:55Z,42.805,6.029,13.2997,4.60012,2472.047,2017-11-28T05:11:23Z
2017-11-28T03:12:58Z,42.805,6.029,13.3002,4.60021,2472.069,2017-11-28T05:14:26Z
2017-11-28T03:16:01Z,42.805,6.029,13.3002,4.59992,2472.069,2017-11-28T05:17:29Z
2017-11-28T03:19:04Z,42.805,6.029,13.3000,4.60013,2472.092,2017-11-28T05:20:32Z
2017-11-28T03:22:07Z,42.805,6.029,13.3008,4.59986,2472.077,2017-11-28T05:23:35Z
2017-11-28T03:25:09Z,42.805,6.029,13.2983,4.59988,2472.055,2017-11-28T05:26:38Z
2017-11-28T03:28:12Z,42.805,6.029,13.2996,4.60006,2472.055,2017-11-28T05:29:41Z
2017-11-28T03:31:15Z,42.805,6.029,13.2992,4.60030,2472.069,2017-11-28T05:32:44Z
2017-11-28T03:34:18Z,42.805,6.029,13.3021,4.59998,2472.055,2017-11-28T05:35:47Z
2017-11-28T03:37:21Z,42.805,6.029,13.3014,4.59998,2472.092,2017-11-28T05:38:49Z
2017-11-28T03:40:24Z,42.805,6.029,13.3031,4.60066,2472.055,2017-11-28T05:41:52Z
2017-11-28T03:43:27Z,42.805,6.029,13.3049,4.60029,2472.107,2017-11-28T05:44:55Z
2017-11-28T03:46:30Z,42.805,6.029,13.3037,4.60004,2472.069,2017-11-28T05:47:58Z
2017-11-28T03:49:33Z,42.805,6.029,13.3033,4.59992,2472.077,2017-11-28T05:51:01Z
2017-11-28T03:52:35Z,42.805,6.029,13.3026,4.60002,2472.069,2017-11-28T05:54:04Z
2017-11-28T03:55:38Z,42.805,6.029,13.3019,4.59981,2472.055,2017-11-28T05:57:07Z
2017-11-28T03:58:41Z,42.805,6.029,13.3011,4.59992,2472.047,2017-11-28T06:00:10Z
2017-11-28T04:01:44Z,42.805,6.029,13.3015,4.60009,2472.069,2017-11-28T06:03:13Z
2017-11-28T04:04:47Z,42.805,6.029,13.3014,4.60040,2472.069,2017-11-28T06:06:15Z
2017-11-28T04:07:50Z,42.805,6.029,13.3010,4.59997,2472.069,2017-11-28T06:09:18Z
2017-11-28T04:10:53Z,42.805,6.029,13.2991,4.59983,2472.069,2017-11-28T06:12:21Z
2017-11-28T04:13:56Z,42.805,6.029,13.3002,4.59993,2472.069,2017-11-28T06:15:24Z
2017-11-28T04:16:59Z,42.805,6.029,13.3004,4.59992,2472.032,2017-11-28T06:18:27Z
2017-11-28T04:20:02Z,42.805,6.029,13.2980,4.59990,2472.047,2017-11-28T06:21:30Z
2017-11-28T04:23:04Z,42.805,6.029,13.2960,4.59986,2472.092,2017-11-28T06:24:33Z
2017-11-28T04:26:07Z,42.805,6.029,13.2983,4.59995,2472.069,2017-11-28T06:27:36Z
2017-11-28T04:29:10Z,42.805,6.029,13.3007,4.59977,2472.069,2017-11-28T06:30:39Z
2017-11-28T04:32:13Z,42.805,6.029,13.2957,4.60015,2472.092,2017-11-28T06:33:41Z
2017-11-28T04:35:16Z,42.805,6.029,13.2941,4.60009,2472.069,2017-11-28T06:36:44Z
2017-11-28T04:38:19Z,42.805,6.029,13.2950,4.59970,2472.055,2017-11-28T06:39:47Z
2017-11-28T04:41:22Z,42.805,6.029,13.2940,4.59962,2472.047,2017-11-28T06:42:50Z
2017-11-28T04:44:25Z,42.805,6.029,13.2940,4.59961,2472.069,2017-11-28T06:45:53Z
2017-11-28T04:47:28Z,42.805,6.029,13.2936,4.59968,2472.069,2017-11-28T06:48:56Z
2017-11-28T04:50:30Z,42.805,6.029,13.2934,4.59984,2472.055,2017-11-28T06:51:59Z
2017-11-28T04:53:33Z,42.805,6.029,13.2935,4.59973,2472.069,2017-11-28T06:55:02Z
2017-11-28T04:56:36Z,42.805,6.029,13.2932,4.59975,2472.069,2017-11-28T06:58:05Z
2017-11-28T04:59:39Z,42.805,6.029,13.2939,4.59977,2472.077,2017-11-28T07:01:08Z
2017-11-28T05:02:42Z,42.805,6.029,13.2936,4.59981,2472.069,2017-11-28T07:04:10Z
2017-11-28T05:05:45Z,42.805,6.029,13.2939,4.59981,2472.069,2017-11-28T07:07:13Z
2017-11-28T05:08:48Z,42.805,6.029,13.2935,4.59983,2472.069,2017-11-28T07:10:16Z
2017-11-28T05:11:51Z,42.805,6.029,13.2933,4.59988,2472.069,2017-11-28T07:13:19Z
2017-11-28T05:14:54Z,42.805,6.029,13.2939,4.59975,2472.047,2017-11-28T07:16:22Z
2017-11-28T05:17:56Z,42.805,6.029,13.2935,4.59967,2472.047,2017-11-28T07:19:25Z
2017-11-28T05:20:59Z,42.805,6.029,13.2940,4.59969,2472.069,2017-11-28T07:22:28Z
2017-11-28T05:24:02Z,42.805,6.029,13.2939,4.59984,2472.069,2017-11-28T07:25:31Z
2017-11-28T05:27:05Z,42.805,6.029,13.2958,4.59997,2472.047,2017-11-28T07:28:34Z
2017-11-28T05:30:08Z,42.805,6.029,13.2994,4.60012,2472.047,2017-11-28T07:31:36Z
2017-11-28T05:33:11Z,42.805,6.029,13.2936,4.59979,2472.047,2017-11-28T07:34:39Z
2017-11-28T05:36:14Z,42.805,6.029,13.2937,4.59970,2472.032,2017-11-28T07:37:42Z
2017-11-28T05:39:17Z,42.805,6.029,13.2937,4.59969,2472.047,2017-11-28T07:40:45Z
2017-11-28T05:42:20Z,42.805,6.029,13.2950,4.59977,2472.032,2017-11-28T07:43:48Z
2017-11-28T05:45:22Z,42.805,6.029,13.2943,4.59972,2472.055,2017-11-28T07:46:51Z
2017-11-28T05:48:25Z,42.805,6.029,13.2938,4.59964,2472.047,2017-11-28T07:49:54Z
2017-11-28T05:51:28Z,42.805,6.029,13.2936,4.59967,2472.055,2017-11-28T07:52:57Z
2017-11-28T05:54:31Z,42.805,6.029,13.3026,4.60006,2472.055,2017-11-28T07:56:00Z
2017-11-28T05:57:34Z,42.805,6.029,13.2941,4.59998,2472.047,2017-11-28T07:59:03Z
2017-11-28T06:00:37Z,42.805,6.029,13.2957,4.59972,2472.024,2017-11-28T08:02:05Z
2017-11-28T06:03:40Z,42.805,6.029,13.2973,4.59996,2472.047,2017-11-28T08:05:08Z
2017-11-28T06:06:43Z,42.805,6.029,13.2978,4.59986,2472.047,2017-11-28T08:08:11Z
2017-11-28T06:09:46Z,42.805,6.029,13.2988,4.60002,2472.047,2017-11-28T08:11:14Z
2017-11-28T06:12:48Z,42.805,6.029,13.2943,4.59972,2472.047,2017-11-28T08:14:17Z
2017-11-28T06:15:51Z,42.805,6.029,13.2945,4.59969,2472.01,2017-11-28T08:17:20Z
2017-11-28T06:18:54Z,42.805,6.029,13.2956,4.59982,2472.047,2017-11-28T08:20:23Z
2017-11-28T06:21:57Z,42.805,6.029,13.2968,4.59983,2472.047,2017-11-28T08:23:26Z
2017-11-28T06:25:00Z,42.805,6.029,13.2967,4.59997,2472.024,2017-11-28T08:26:29Z
2017-11-28T06:28:03Z,42.805,6.029,13.2970,4.60041,2472.047,2017-11-28T08:29:31Z
2017-11-28T06:31:06Z,42.805,6.029,13.2964,4.60037,2472.032,2017-11-28T08:32:34Z
2017-11-28T06:34:09Z,42.805,6.029,13.2969,4.59993,2472.039,2017-11-28T08:35:37Z
2017-11-28T06:37:12Z,42.805,6.029,13.2962,4.59994,2472.047,2017-11-28T08:38:40Z
2017-11-28T06:40:15Z,42.805,6.029,13.2954,4.59967,2472.047,2017-11-28T08:41:43Z
2017-11-28T06:43:17Z,42.805,6.029,13.2940,4.59963,2472.024,2017-11-28T08:44:46Z
2017-11-28T06:46:20Z,42.805,6.029,13.2978,4.59983,2472.01,2017-11-28T08:47:49Z
2017-11-28T06:49:23Z,42.805,6.029,13.2978,4.59993,2472.047,2017-11-28T08:50:52Z
2017-11-28T06:52:26Z,42.805,6.029,13.2956,4.59987,2472.047,2017-11-28T08:53:55Z
2017-11-28T06:55:29Z,42.805,6.029,13.2956,4.59964,2472.047,2017-11-28T08:56:57Z
2017-11-28T06:58:32Z,42.805,6.029,13.2950,4.59974,2472.069,2017-11-28T09:00:00Z
2017-11-28T07:01:35Z,42.805,6.029,13.2957,4.59972,2472.047,2017-11-28T09:03:03Z
2017-11-28T07:04:38Z,42.805,6.029,13.2968,4.60004,2472.024,2017-11-28T09:06:06Z
2017-11-28T07:07:41Z,42.805,6.029,13.2959,4.60001,2472.069,2017-11-28T09:09:09Z
2017-11-28T07:10:43Z,42.805,6.029,13.2958,4.60034,2472.024,2017-11-28T09:12:12Z
2017-11-28T07:13:46Z,42.805,6.029,13.2965,4.60063,2472.024,2017-11-28T09:15:15Z
2017-11-28T07:16:49Z,42.805,6.029,13.2962,4.60015,2472.047,2017-11-28T09:18:18Z
2017-11-28T07:19:52Z,42.805,6.029,13.2960,4.60014,2472.069,2017-11-28T09:21:21Z
2017-11-28T07:22:55Z,42.805,6.029,13.2963,4.60052,2472.024,2017-11-28T09:24:23Z
2017-11-28T07:25:58Z,42.805,6.029,13.2974,4.60050,2472.069,2017-11-28T09:27:26Z
2017-11-28T07:29:01Z,42.805,6.029,13.2946,4.60039,2472.01,2017-11-28T09:30:29Z
2017-11-28T07:32:04Z,42.805,6.029,13.2956,4.60028,2472.024,2017-11-28T09:33:32Z
2017-11-28T07:35:07Z,42.805,6.029,13.2963,4.60042,2472.01,2017-11-28T09:36:35Z
2017-11-28T07:38:09Z,42.805,6.029,13.2960,4.60038,2472.047,2017-11-28T09:39:38Z
2017-11-28T07:41:12Z,42.805,6.029,13.2958,4.60027,2472.024,2017-11-28T09:42:41Z
2017-11-28T07:44:15Z,42.805,6.029,13.2951,4.60009,2472.024,2017-11-28T09:45:44Z
2017-11-28T07:47:18Z,42.805,6.029,13.2947,4.59983,2472.047,2017-11-28T09:48:47Z
2017-11-28T07:50:21Z,42.805,6.029,13.2963,4.60001,2472.024,2017-11-28T09:51:49Z
2017-11-28T07:53:24Z,42.805,6.029,13.2969,4.60053,2472.024,2017-11-28T09:54:52Z
2017-11-28T07:56:27Z,42.805,6.029,13.2974,4.60035,2472.032,2017-11-28T09:57:55Z
2017-11-28T07:59:30Z,42.805,6.029,13.2957,4.60001,2472.062,2017-11-28T10:00:58Z
2017-11-28T08:02:33Z,42.805,6.029,13.2955,4.59992,2472.024,2017-11-28T10:04:01Z
2017-11-28T08:05:35Z,42.805,6.029,13.2943,4.59978,2471.987,2017-11-28T10:07:04Z
2017-11-28T08:08:38Z,42.805,6.029,13.2954,4.59995,2472.039,2017-11-28T10:10:07Z
2017-11-28T08:11:41Z,42.805,6.029,13.2948,4.59998,2472.01,2017-11-28T10:13:10Z
2017-11-28T08:14:44Z,42.805,6.029,13.2954,4.60007,2472.024,2017-11-28T10:16:13Z
2017-11-28T08:17:47Z,42.805,6.029,13.2948,4.59980,2472.002,2017-11-28T10:19:16Z
2017-11-28T08:20:50Z,42.805,6.029,13.2949,4.59995,2472.024,2017-11-28T10:22:18Z
2017-11-28T08:23:53Z,42.805,6.029,13.2954,4.59983,2472.01,2017-11-28T10:25:21Z
2017-11-28T08:26:56Z,42.805,6.029,13.2948,4.59995,2472.024,2017-11-28T10:28:24Z
2017-11-28T08:29:59Z,42.805,6.029,13.2952,4.59987,2472.032,2017-11-28T10:31:27Z
2017-11-28T08:33:02Z,42.805,6.029,13.2951,4.59978,2471.987,2017-11-28T10:34:30Z
2017-11-28T08:36:04Z,42.805,6.029,13.2952,4.59978,2472.024,2017-11-28T10:37:33Z
2017-11-28T08:39:07Z,42.805,6.029,13.2951,4.59995,2472.002,2017-11-28T10:40:36Z
2017-11-28T08:42:10Z,42.805,6.029,13.2948,4.59978,2472.01,2017-11-28T10:43:39Z
2017-11-28T08:45:13Z,42.805,6.029,13.2949,4.59975,2472.024,2017-11-28T10:46:42Z
2017-11-28T08:48:16Z,42.805,6.029,13.2951,4.59975,2472.024,2017-11-28T10:49:45Z
2017-11-28T08:51:19Z,42.805,6.029,13.2945,4.59979,2472.024,2017-11-28T10:52:47Z
2017-11-28T08:54:22Z,42.805,6.029,13.2949,4.59978,2472.047,2017-11-28T10:55:50Z
2017-11-28T08:57:25Z,42.805,6.029,13.2949,4.59978,2472.024,2017-11-28T10:58:53Z
2017-11-28T09:00:28Z,42.805,6.029,13.2951,4.59989,2472.01,2017-11-28T11:01:56Z
2017-11-28T09:03:31Z,42.805,6.029,13.2952,4.59987,2472.01,2017-11-28T11:04:59Z
2017-11-28T09:06:33Z,42.805,6.029,13.2951,4.59987,2472.002,2017-11-28T11:08:02Z
2017-11-28T09:09:36Z,42.805,6.029,13.2950,4.59993,2472.024,2017-11-28T11:11:05Z
2017-11-28T09:12:39Z,42.805,6.029,13.2956,4.59981,2472.032,2017-11-28T11:14:08Z
2017-11-28T09:15:42Z,42.805,6.029,13.2952,4.59998,2472.024,2017-11-28T11:17:11Z
2017-11-28T09:18:45Z,42.805,6.029,13.2948,4.59992,2472.01,2017-11-28T11:20:13Z
2017-11-28T09:21:48Z,42.805,6.029,13.2952,4.59998,2472.047,2017-11-28T11:23:16Z
2017-11-28T09:24:51Z,42.805,6.029,13.2950,4.59997,2472.047,2017-11-28T11:26:19Z
2017-11-28T09:27:54Z,42.805,6.029,13.2961,4.59993,2472.032,2017-11-28T11:29:22Z
2017-11-28T09:30:57Z,42.805,6.029,13.2954,4.59983,2472.032,2017-11-28T11:32:25Z
2017-11-28T09:34:00Z,42.805,6.029,13.2948,4.59982,2472.047,2017-11-28T11:35:28Z
2017-11-28T09:37:02Z,42.805,6.029,13.2953,4.59984,2472.047,2017-11-28T11:38:31Z
2017-11-28T09:40:05Z,42.805,6.029,13.2952,4.59990,2472.01,2017-11-28T11:41:34Z
2017-11-28T09:43:08Z,42.805,6.029,13.2956,4.59998,2472.069,2017-11-28T11:44:37Z
2017-11-28T09:46:11Z,42.805,6.029,13.2951,4.59991,2472.032,2017-11-28T11:47:40Z
2017-11-28T09:49:14Z,42.805,6.029,13.2952,4.59981,2472.024,2017-11-28T11:50:42Z
2017-11-28T09:52:17Z,42.805,6.029,13.2950,4.59983,2472.047,2017-11-28T11:53:45Z
2017-11-28T09:55:20Z,42.805,6.029,13.2955,4.59989,2472.01,2017-11-28T11:56:48Z
2017-11-28T09:58:23Z,42.805,6.029,13.2945,4.59972,2472.047,2017-11-28T11:59:51Z
2017-11-28T10:01:26Z,42.805,6.029,13.2949,4.59972,2472.055,2017-11-28T12:02:54Z
2017-11-28T10:04:29Z,42.805,6.029,13.2952,4.59981,2472.047,2017-11-28T12:05:57Z
2017-11-28T10:07:31Z,42.805,6.029,13.2948,4.59989,2472.069,2017-11-28T12:09:00Z
2017-11-28T10:10:34Z,42.805,6.029,13.2948,4.59987,2472.032,2017-11-28T12:12:03Z
2017-11-28T10:13:37Z,42.805,6.029,13.2954,4.59987,2472.069,2017-11-28T12:15:06Z
2017-11-28T10:16:40Z,42.805,6.029,13.2954,4.59995,2472.047,2017-11-28T12:18:09Z
2017-11-28T10:19:43Z,42.805,6.029,13.2950,4.59987,2472.047,2017-11-28T12:21:11Z
2017-11-28T10:22:46Z,42.805,6.029,13.2951,4.59988,2472.069,2017-11-28T12:24:14Z
2017-11-28T10:25:49Z,42.805,6.029,13.2951,4.59988,2472.047,2017-11-28T12:27:17Z
2017-11-28T10:28:52Z,42.805,6.029,13.2954,4.59984,2472.047,2017-11-28T12:30:20Z
2017-11-28T10:31:55Z,42.805,6.029,13.2955,4.59987,2472.1,2017-11-28T12:33:23Z
2017-11-28T10:34:57Z,42.805,6.029,13.2954,4.59981,2472.047,2017-11-28T12:36:26Z
2017-11-28T10:38:00Z,42.805,6.029,13.2955,4.59991,2472.047,2017-11-28T12:39:29Z
2017-11-28T10:41:03Z,42.805,6.029,13.2952,4.59994,2472.055,2017-11-28T12:42:32Z
2017-11-28T10:44:06Z,42.805,6.029,13.2946,4.59985,2472.069,2017-11-28T12:45:35Z
2017-11-28T10:47:09Z,42.805,6.029,13.2950,4.59981,2472.047,2017-11-28T12:48:37Z
2017-11-28T10:50:12Z,42.805,6.029,13.2947,4.59984,2472.092,2017-11-28T12:51:40Z
2017-11-28T10:53:15Z,42.805,6.029,13.2948,4.59978,2472.092,2017-11-28T12:54:43Z
2017-11-28T10:56:18Z,42.805,6.029,13.2948,4.59979,2472.032,2017-11-28T12:57:46Z
2017-11-28T10:59:21Z,42.805,6.029,13.2957,4.59984,2472.069,2017-11-28T13:00:49Z
2017-11-28T11:02:24Z,42.805,6.029,13.2948,4.59983,2472.069,2017-11-28T13:03:52Z
2017-11-28T11:05:26Z,42.805,6.029,13.2951,4.59990,2472.069,2017-11-28T13:06:55Z
2017-11-28T11:08:29Z,42.805,6.029,13.2950,4.59990,2472.092,2017-11-28T13:09:58Z
2017-11-28T11:11:32Z,42.805,6.029,13.2948,4.59987,2472.069,2017-11-28T13:13:01Z
2017-11-28T11:14:35Z,42.805,6.029,13.2954,4.59990,2472.092,2017-11-28T13:16:04Z
2017-11-28T11:17:38Z,42.805,6.029,13.2951,4.59988,2472.077,2017-11-28T13:19:06Z
2017-11-28T11:20:41Z,42.805,6.029,13.2948,4.59980,2472.032,2017-11-28T13:22:09Z
2017-11-28T11:23:44Z,42.805,6.029,13.2945,4.59980,2472.092,2017-11-28T13:25:12Z
2017-11-28T11:26:47Z,42.805,6.029,13.2951,4.59985,2472.092,2017-11-28T13:28:15Z
2017-11-28T11:29:50Z,42.805,6.029,13.2952,4.60004,2472.077,2017-11-28T13:31:18Z
2017-11-28T11:32:52Z,42.805,6.029,13.2949,4.59987,2472.055,2017-11-28T13:34:21Z
2017-11-28T11:35:55Z,42.805,6.029,13.2950,4.59987,2472.077,2017-11-28T13:37:24Z
2017-11-28T11:38:58Z,42.805,6.029,13.2948,4.59987,2472.115,2017-11-28T13:40:27Z
2017-11-28T11:42:01Z,42.805,6.029,13.2950,4.59993,2472.077,2017-11-28T13:43:30Z
2017-11-28T11:45:04Z,42.805,6.029,13.2953,4.59993,2472.069,2017-11-28T13:46:33Z
2017-11-28T11:48:07Z,42.805,6.029,13.2950,4.59993,2472.115,2017-11-28T13:49:35Z
2017-11-28T11:51:10Z,42.805,6.029,13.2950,4.59981,2472.092,2017-11-28T13:52:38Z
2017-11-28T11:54:13Z,42.805,6.029,13.2948,4.59985,2472.077,2017-11-28T13:55:41Z
2017-11-28T11:57:16Z,42.805,6.029,13.2949,4.59988,2472.092,2017-11-28T13:58:44Z
2017-11-28T12:00:19Z,42.805,6.029,13.2943,4.59987,2472.092,2017-11-28T14:01:47Z
2017-11-28T12:03:21Z,42.805,6.029,13.2950,4.59998,2472.115,2017-11-28T14:04:50Z
2017-11-28T12:06:24Z,42.805,6.029,13.2957,4.59998,2472.077,2017-11-28T14:07:53Z
2017-11-28T12:09:27Z,42.805,6.029,13.2949,4.59981,2472.115,2017-11-28T14:10:56Z
2017-11-28T12:12:30Z,42.805,6.029,13.2953,4.59997,2472.1,2017-11-28T14:13:59Z
2017-11-28T12:15:33Z,42.805,6.029,13.2951,4.59982,2472.123,2017-11-28T14:17:01Z
2017-11-28T12:18:36Z,42.805,6.029,13.2947,4.59981,2472.115,2017-11-28T14:20:04Z
2017-11-28T12:21:39Z,42.805,6.029,13.2943,4.59978,2472.123,2017-11-28T14:23:07Z
2017-11-28T12:24:42Z,42.805,6.029,13.2945,4.59984,2472.115,2017-11-28T14:26:10Z
2017-11-28T12:27:45Z,42.805,6.029,13.2945,4.59989,2472.152,2017-11-28T14:29:13Z
2017-11-28T12:30:48Z,42.805,6.029,13.2951,4.59980,2472.1,2017-11-28T14:32:16Z
2017-11-28T12:33:50Z,42.805,6.029,13.2949,4.59979,2472.092,2017-11-28T14:35:19Z
2017-11-28T12:36:53Z,42.805,6.029,13.2944,4.59982,2472.123,2017-11-28T14:38:22Z
2017-11-28T12:39:56Z,42.805,6.029,13.2947,4.59983,2472.137,2017-11-28T14:41:25Z
2017-11-28T12:42:59Z,42.805,6.029,13.2945,4.59975,2472.137,2017-11-28T14:44:28Z
2017-11-28T12:46:02Z,42.805,6.029,13.2946,4.59979,2472.1,2017-11-28T14:47:30Z
2017-11-28T12:49:05Z,42.805,6.029,13.2951,4.59981,2472.115,2017-11-28T14:50:33Z
2017-11-28T12:52:08Z,42.805,6.029,13.2947,4.59979,2472.1,2017-11-28T14:53:36Z
2017-11-28T12:55:11Z,42.805,6.029,13.2951,4.59981,2472.092,2017-11-28T14:56:39Z
2017-11-28T12:58:14Z,42.805,6.029,13.2954,4.59982,2472.137,2017-11-28T14:59:42Z
2017-11-28T13:01:16Z,42.805,6.029,13.2946,4.59978,2472.137,2017-11-28T15:02:45Z
2017-11-28T13:04:19Z,42.805,6.029,13.2947,4.59984,2472.137,2017-11-28T15:05:48Z
2017-11-28T13:07:22Z,42.805,6.029,13.2951,4.59998,2472.123,2017-11-28T15:08:51Z
2017-11-28T13:10:25Z,42.805,6.029,13.2949,4.59992,2472.123,2017-11-28T15:11:54Z
2017-11-28T13:13:28Z,42.805,6.029,13.2952,4.60001,2472.123,2017-11-28T15:14:57Z
2017-11-28T13:16:31Z,42.805,6.029,13.2961,4.59983,2472.137,2017-11-28T15:17:59Z
2017-11-28T13:19:34Z,42.805,6.029,13.2946,4.59989,2472.137,2017-11-28T15:21:02Z
2017-11-28T13:22:37Z,42.805,6.029,13.2951,4.59987,2472.182,2017-11-28T15:24:05Z
2017-11-28T13:25:40Z,42.805,6.029,13.2947,4.59999,2472.115,2017-11-28T15:27:08Z
2017-11-28T13:28:43Z,42.805,6.029,13.2952,4.59994,2472.145,2017-11-28T15:30:11Z
2017-11-28T13:31:45Z,42.805,6.029,13.2957,4.59995,2472.115,2017-11-28T15:33:14Z
2017-11-28T13:34:48Z,42.805,6.029,13.2955,4.60004,2472.16,2017-11-28T15:36:17Z
2017-11-28T13:37:51Z,42.805,6.029,13.2956,4.60035,2472.137,2017-11-28T15:39:20Z
2017-11-28T13:40:54Z,42.805,6.029,13.2964,4.60029,2472.16,2017-11-28T15:42:23Z
2017-11-28T13:43:57Z,42.805,6.029,13.2951,4.60004,2472.145,2017-11-28T15:45:26Z
2017-11-28T13:47:00Z,42.805,6.029,13.2955,4.60009,2472.137,2017-11-28T15:48:28Z
2017-11-28T13:50:03Z,42.805,6.029,13.2960,4.60025,2472.137,2017-11-28T15:51:31Z
2017-11-28T13:53:06Z,42.805,6.029,13.2966,4.60023,2472.16,2017-11-28T15:54:34Z
2017-11-28T13:56:09Z,42.805,6.029,13.2961,4.60018,2472.145,2017-11-28T15:57:37Z
2017-11-28T13:59:12Z,42.805,6.029,13.2946,4.59992,2472.16,2017-11-28T16:00:40Z
2017-11-28T14:02:14Z,42.805,6.029,13.2952,4.59981,2472.137,2017-11-28T16:03:43Z
2017-11-28T14:05:17Z,42.805,6.029,13.2950,4.59990,2472.145,2017-11-28T16:06:46Z
2017-11-28T14:08:20Z,42.805,6.029,13.2960,4.59992,2472.137,2017-11-28T16:09:49Z
2017-11-28T14:11:23Z,42.805,6.029,13.2969,4.60021,2472.123,2017-11-28T16:12:52Z
2017-11-28T14:14:26Z,42.805,6.029,13.2977,4.60029,2472.145,2017-11-28T16:15:54Z
2017-11-28T14:17:29Z,42.805,6.029,13.2972,4.60001,2472.123,2017-11-28T16:18:57Z
2017-11-28T14:20:32Z,42.805,6.029,13.2970,4.59987,2472.16,2017-11-28T16:22:00Z
2017-11-28T14:23:35Z,42.805,6.029,13.2968,4.60024,2472.16,2017-11-28T16:25:03Z
2017-11-28T14:26:38Z,42.805,6.029,13.2978,4.60009,2472.137,2017-11-28T16:28:06Z
2017-11-28T14:29:40Z,42.805,6.029,13.2982,4.60008,2472.145,2017-11-28T16:31:09Z
2017-11-28T14:32:43Z,42.805,6.029,13.2972,4.59992,2472.16,2017-11-28T16:34:12Z
2017-11-28T14:35:46Z,42.805,6.029,13.2990,4.60030,2472.16,2017-11-28T16:37:15Z
2017-11-28T14:38:49Z,42.805,6.029,13.2979,4.60041,2472.145,2017-11-28T16:40:18Z
2017-11-28T14:41:52Z,42.805,6.029,13.2963,4.60036,2472.16,2017-11-28T16:43:21Z
2017-11-28T14:44:55Z,42.805,6.029,13.2973,4.60021,2472.182,2017-11-28T16:46:23Z
2017-11-28T14:47:58Z,42.805,6.029,13.2964,4.60029,2472.182,2017-11-28T16:49:26Z
2017-11-28T14:51:01Z,42.805,6.029,13.2973,4.60015,2472.145,2017-11-28T16:52:29Z
2017-11-28T14:54:04Z,42.805,6.029,13.2972,4.60018,2472.168,2017-11-28T16:55:32Z
2017-11-28T14:57:07Z,42.805,6.029,13.2978,4.60034,2472.182,2017-11-28T16:58:35Z